Time,TemperatureF,DewpointF,PressureIn,WindDirection,WindDirectionDegrees,WindSpeedMPH,WindSpeedGustMPH,Humidity,HourlyPrecipIn,Conditions,Clouds,dailyrainin,SolarRadiationWatts/m^2,SoftwareType,DateUTC
2013-11-12 00:11:00,61.4,61.0,30.12,NE,52,1.0,2.0,97,0.00,,,0.00,0,weatherlink.com 1.10,2013-11-12 05:11:00,
2013-11-12 00:26:00,61.6,61.0,30.12,NNE,22,2.0,3.0,97,0.00,,,0.00,0,weatherlink.com 1.10,2013-11-12 05:26:00,
2013-11-12 00:41:00,61.8,61.0,30.12,NNE,22,0.0,4.0,97,0.00,,,0.00,0,weatherlink.com 1.10,2013-11-12 05:41:00,
2013-11-12 00:56:00,61.8,61.0,30.11,North,360,1.0,2.0,97,0.00,,,0.00,0,weatherlink.com 1.10,2013-11-12 05:56:00,
2013-11-12 01:11:00,61.7,61.0,30.11,NE,51,0.0,3.0,97,0.00,,,0.00,0,weatherlink.com 1.10,2013-11-12 06:11:00,
2013-11-12 01:26:00,61.7,61.0,30.11,North,9,1.0,4.0,97,0.00,,,0.00,0,weatherlink.com 1.10,2013-11-12 06:26:00,
2013-11-12 01:41:00,61.8,61.0,30.11,North,9,4.0,4.0,98,0.00,,,0.00,0,weatherlink.com 1.10,2013-11-12 06:41:00,
2013-11-12 01:56:00,61.8,61.0,30.11,NE,49,2.0,6.0,98,0.00,,,0.00,0,weatherlink.com 1.10,2013-11-12 06:56:00,
2013-11-12 02:11:00,61.7,61.0,30.10,NNE,17,0.0,5.0,98,0.00,,,0.00,0,weatherlink.com 1.10,2013-11-12 07:11:00,
2013-11-12 02:26:00,61.7,61.0,30.10,NNE,15,1.0,3.0,98,0.00,,,0.00,0,weatherlink.com 1.10,2013-11-12 07:26:00,
2013-11-12 02:41:00,61.8,61.0,30.10,NE,36,1.0,4.0,98,0.00,,,0.00,0,weatherlink.com 1.10,2013-11-12 07:41:00,
2013-11-12 02:56:00,61.9,61.0,30.10,NNE,30,2.0,7.0,98,0.00,,,0.00,0,weatherlink.com 1.10,2013-11-12 07:56:00,
2013-11-12 03:11:00,62.0,62.0,30.10,NE,39,0.0,4.0,98,0.00,,,0.00,0,weatherlink.com 1.10,2013-11-12 08:11:00,
2013-11-12 03:26:00,62.0,62.0,30.10,NNE,13,1.0,8.0,98,0.00,,,0.00,0,weatherlink.com 1.10,2013-11-12 08:26:00,
2013-11-12 03:41:00,62.1,62.0,30.10,NE,52,1.0,5.0,98,0.00,,,0.00,0,weatherlink.com 1.10,2013-11-12 08:41:00,
2013-11-12 03:56:00,62.2,62.0,30.10,NE,42,2.0,4.0,98,0.00,,,0.00,0,weatherlink.com 1.10,2013-11-12 08:56:00,
2013-11-12 04:11:00,62.2,62.0,30.10,North,9,3.0,6.0,98,0.00,,,0.00,0,weatherlink.com 1.10,2013-11-12 09:11:00,
2013-11-12 04:26:00,62.3,62.0,30.11,NNW,344,1.0,4.0,98,0.00,,,0.00,0,weatherlink.com 1.10,2013-11-12 09:26:00,
2013-11-12 04:41:00,62.3,62.0,30.10,ENE,59,1.0,4.0,98,0.00,,,0.00,0,weatherlink.com 1.10,2013-11-12 09:41:00,
2013-11-12 04:56:00,62.2,62.0,30.10,NE,46,0.0,5.0,98,0.00,,,0.00,0,weatherlink.com 1.10,2013-11-12 09:56:00,
2013-11-12 05:11:00,62.3,62.0,30.10,NE,42,1.0,6.0,98,0.00,,,0.00,0,weatherlink.com 1.10,2013-11-12 10:11:00,
2013-11-12 05:26:00,62.4,62.0,30.10,NE,55,1.0,5.0,98,0.00,,,0.00,0,weatherlink.com 1.10,2013-11-12 10:26:00,
2013-11-12 05:41:00,62.5,62.0,30.11,NE,35,3.0,4.0,98,0.00,,,0.00,0,weatherlink.com 1.10,2013-11-12 10:41:00,
2013-11-12 05:56:00,62.6,62.0,30.11,NE,34,1.0,4.0,98,0.00,,,0.00,0,weatherlink.com 1.10,2013-11-12 10:56:00,
2013-11-12 06:11:00,62.5,62.0,30.11,NNE,19,4.0,5.0,98,0.00,,,0.00,0,weatherlink.com 1.10,2013-11-12 11:11:00,
2013-11-12 06:26:00,62.5,62.0,30.11,NNW,330,1.0,3.0,98,0.00,,,0.00,0,weatherlink.com 1.10,2013-11-12 11:26:00,
2013-11-12 06:41:00,62.4,62.0,30.11,NE,48,3.0,4.0,98,0.00,,,0.00,0,weatherlink.com 1.10,2013-11-12 11:41:00,
2013-11-12 06:56:00,62.4,62.0,30.11,North,351,1.0,5.0,98,0.00,,,0.00,0,weatherlink.com 1.10,2013-11-12 11:56:00,
2013-11-12 07:11:00,62.4,62.0,30.12,North,355,0.0,4.0,98,0.00,,,0.00,11,weatherlink.com 1.10,2013-11-12 12:11:00,
2013-11-12 07:26:00,62.3,62.0,30.12,North,5,2.0,4.0,98,0.00,,,0.00,16,weatherlink.com 1.10,2013-11-12 12:26:00,
2013-11-12 07:41:00,62.4,62.0,30.13,ENE,57,1.0,3.0,98,0.00,,,0.00,28,weatherlink.com 1.10,2013-11-12 12:41:00,
2013-11-12 07:56:00,62.5,62.0,30.13,NNE,31,1.0,4.0,98,0.00,,,0.00,40,weatherlink.com 1.10,2013-11-12 12:56:00,
2013-11-12 08:11:00,62.6,62.0,30.13,North,5,1.0,4.0,98,0.00,,,0.00,56,weatherlink.com 1.10,2013-11-12 13:11:00,
2013-11-12 08:26:00,62.5,62.0,30.13,North,5,2.0,5.0,98,0.00,,,0.00,46,weatherlink.com 1.10,2013-11-12 13:26:00,
2013-11-12 08:41:00,62.7,62.0,30.13,NW,312,0.0,3.0,98,0.00,,,0.00,63,weatherlink.com 1.10,2013-11-12 13:41:00,
2013-11-12 08:56:00,62.5,62.0,30.13,West,279,2.0,4.0,98,0.00,,,0.00,95,weatherlink.com 1.10,2013-11-12 13:56:00,
2013-11-12 09:11:00,62.5,62.0,30.14,North,351,2.0,4.0,98,0.00,,,0.00,105,weatherlink.com 1.10,2013-11-12 14:11:00,
2013-11-12 09:26:00,62.7,62.0,30.14,NE,40,2.0,4.0,98,0.00,,,0.00,176,weatherlink.com 1.10,2013-11-12 14:26:00,
2013-11-12 09:41:00,63.0,63.0,30.14,NW,325,3.0,5.0,98,0.00,,,0.00,148,weatherlink.com 1.10,2013-11-12 14:41:00,
2013-11-12 09:56:00,63.0,63.0,30.14,NE,38,1.0,5.0,99,0.00,,,0.00,107,weatherlink.com 1.10,2013-11-12 14:56:00,
2013-11-12 10:11:00,63.5,63.0,30.13,NW,311,2.0,3.0,99,0.00,,,0.00,148,weatherlink.com 1.10,2013-11-12 15:11:00,
2013-11-12 10:26:00,63.6,63.0,30.14,NW,316,0.0,5.0,99,0.00,,,0.00,294,weatherlink.com 1.10,2013-11-12 15:26:00,
2013-11-12 10:41:00,64.2,64.0,30.13,NNE,13,1.0,2.0,99,0.00,,,0.00,216,weatherlink.com 1.10,2013-11-12 15:41:00,
2013-11-12 10:56:00,64.3,64.0,30.12,NW,321,0.0,3.0,99,0.00,,,0.00,211,weatherlink.com 1.10,2013-11-12 15:56:00,
2013-11-12 11:12:00,64.8,65.0,30.11,North,350,1.0,3.0,99,0.00,,,0.00,274,weatherlink.com 1.10,2013-11-12 16:12:00,
2013-11-12 11:27:00,65.5,65.0,30.10,North,351,1.0,4.0,99,0.00,,,0.00,357,weatherlink.com 1.10,2013-11-12 16:27:00,
2013-11-12 11:42:00,66.4,66.0,30.09,NW,304,1.0,2.0,98,0.00,,,0.00,380,weatherlink.com 1.10,2013-11-12 16:42:00,
2013-11-12 11:57:00,67.6,66.0,30.09,NW,326,0.0,3.0,95,0.00,,,0.00,315,weatherlink.com 1.10,2013-11-12 16:57:00,
2013-11-12 12:12:00,69.2,66.0,30.08,NW,305,4.0,4.0,89,0.00,,,0.00,334,weatherlink.com 1.10,2013-11-12 17:12:00,
2013-11-12 12:27:00,70.5,66.0,30.07,NNE,26,1.0,4.0,85,0.00,,,0.00,471,weatherlink.com 1.10,2013-11-12 17:27:00,
2013-11-12 12:42:00,72.3,67.0,30.06,WNW,289,4.0,5.0,82,0.00,,,0.00,475,weatherlink.com 1.10,2013-11-12 17:42:00,
2013-11-12 12:57:00,72.9,66.0,30.05,ENE,61,0.0,7.0,78,0.00,,,0.00,468,weatherlink.com 1.10,2013-11-12 17:57:00,
2013-11-12 13:12:00,73.5,66.0,30.05,SW,231,6.0,6.0,77,0.00,,,0.00,297,weatherlink.com 1.10,2013-11-12 18:12:00,
2013-11-12 13:27:00,74.2,66.0,30.04,WNW,292,4.0,4.0,75,0.00,,,0.00,432,weatherlink.com 1.10,2013-11-12 18:27:00,
2013-11-12 13:42:00,75.0,66.0,30.03,NNW,344,1.0,4.0,73,0.00,,,0.00,336,weatherlink.com 1.10,2013-11-12 18:42:00,
2013-11-12 13:57:00,74.9,65.0,30.02,NNW,327,2.0,8.0,70,0.00,,,0.00,285,weatherlink.com 1.10,2013-11-12 18:57:00,
2013-11-12 14:12:00,75.6,64.0,30.02,NW,310,5.0,7.0,67,0.00,,,0.00,425,weatherlink.com 1.10,2013-11-12 19:12:00,
2013-11-12 14:27:00,75.2,63.0,30.02,NNW,327,4.0,6.0,67,0.00,,,0.00,185,weatherlink.com 1.10,2013-11-12 19:27:00,
2013-11-12 14:42:00,75.1,64.0,30.02,WSW,257,1.0,6.0,68,0.00,,,0.00,441,weatherlink.com 1.10,2013-11-12 19:42:00,
2013-11-12 14:57:00,75.0,62.0,30.02,West,281,3.0,7.0,65,0.00,,,0.00,232,weatherlink.com 1.10,2013-11-12 19:57:00,
2013-11-12 15:12:00,75.1,62.0,30.02,NNW,344,2.0,8.0,65,0.00,,,0.00,281,weatherlink.com 1.10,2013-11-12 20:12:00,
2013-11-12 15:27:00,75.2,63.0,30.02,NNW,329,3.0,5.0,65,0.00,,,0.00,232,weatherlink.com 1.10,2013-11-12 20:27:00,
2013-11-12 15:42:00,74.9,64.0,30.01,NNW,338,3.0,8.0,68,0.00,,,0.00,220,weatherlink.com 1.10,2013-11-12 20:42:00,
2013-11-12 16:12:00,74.0,62.0,30.02,NW,321,2.0,6.0,66,0.00,,,0.00,118,weatherlink.com 1.10,2013-11-12 21:12:00,
2013-11-12 16:42:00,72.8,60.0,30.04,WNW,298,3.0,5.0,64,0.00,,,0.00,67,weatherlink.com 1.10,2013-11-12 21:42:00,
2013-11-12 16:57:00,72.0,60.0,30.04,North,349,1.0,4.0,66,0.00,,,0.00,44,weatherlink.com 1.10,2013-11-12 21:57:00,
2013-11-12 17:12:00,71.0,59.0,30.05,NNW,344,2.0,5.0,65,0.00,,,0.00,21,weatherlink.com 1.10,2013-11-12 22:12:00,
2013-11-12 17:27:00,70.3,57.0,30.06,NW,312,1.0,5.0,64,0.00,,,0.00,5,weatherlink.com 1.10,2013-11-12 22:27:00,
2013-11-12 17:42:00,69.4,57.0,30.06,NNW,335,2.0,3.0,65,0.00,,,0.00,0,weatherlink.com 1.10,2013-11-12 22:42:00,
2013-11-12 17:57:00,68.5,57.0,30.05,North,5,1.0,3.0,67,0.00,,,0.00,0,weatherlink.com 1.10,2013-11-12 22:57:00,
2013-11-12 18:12:00,68.0,57.0,30.05,North,11,2.0,4.0,69,0.00,,,0.00,0,weatherlink.com 1.10,2013-11-12 23:12:00,
2013-11-12 18:27:00,67.3,58.0,30.06,North,360,0.0,3.0,72,0.00,,,0.00,0,weatherlink.com 1.10,2013-11-12 23:27:00,
2013-11-12 18:42:00,66.7,57.0,30.07,North,360,0.0,0.0,72,0.00,,,0.00,0,weatherlink.com 1.10,2013-11-12 23:42:00,
2013-11-12 18:57:00,66.3,57.0,30.07,North,360,0.0,1.0,73,0.00,,,0.00,0,weatherlink.com 1.10,2013-11-12 23:57:00,
2013-11-12 19:12:00,65.7,57.0,30.08,NNW,343,1.0,3.0,74,0.00,,,0.00,0,weatherlink.com 1.10,2013-11-13 00:12:00,
2013-11-12 19:27:00,65.7,57.0,30.09,NNW,345,4.0,5.0,73,0.00,,,0.00,0,weatherlink.com 1.10,2013-11-13 00:27:00,
2013-11-12 19:42:00,66.0,57.0,30.09,NW,320,2.0,6.0,73,0.00,,,0.00,0,weatherlink.com 1.10,2013-11-13 00:42:00,
2013-11-12 19:57:00,66.2,57.0,30.09,NW,322,1.0,4.0,72,0.00,,,0.00,0,weatherlink.com 1.10,2013-11-13 00:57:00,
2013-11-12 20:12:00,66.0,57.0,30.10,NW,308,1.0,5.0,72,0.00,,,0.00,0,weatherlink.com 1.10,2013-11-13 01:12:00,
2013-11-12 20:28:00,65.8,56.0,30.10,NNW,338,1.0,5.0,71,0.00,,,0.00,0,weatherlink.com 1.10,2013-11-13 01:28:00,
2013-11-12 20:42:00,65.6,56.0,30.11,NNW,337,2.0,5.0,70,0.00,,,0.00,0,weatherlink.com 1.10,2013-11-13 01:42:00,
2013-11-12 20:58:00,65.3,55.0,30.11,WNW,293,2.0,4.0,70,0.00,,,0.00,0,weatherlink.com 1.10,2013-11-13 01:58:00,
2013-11-12 21:13:00,64.9,55.0,30.12,NNW,348,0.0,4.0,71,0.00,,,0.00,0,weatherlink.com 1.10,2013-11-13 02:13:00,
2013-11-12 21:28:00,64.1,55.0,30.12,NNW,348,0.0,0.0,73,0.00,,,0.00,0,weatherlink.com 1.10,2013-11-13 02:28:00,
2013-11-12 21:43:00,63.4,55.0,30.12,NNW,346,0.0,0.0,74,0.00,,,0.00,0,weatherlink.com 1.10,2013-11-13 02:43:00,
2013-11-12 21:58:00,62.6,55.0,30.12,NNW,346,0.0,1.0,76,0.00,,,0.00,0,weatherlink.com 1.10,2013-11-13 02:58:00,
2013-11-12 22:13:00,62.4,55.0,30.12,WNW,299,0.0,3.0,77,0.00,,,0.00,0,weatherlink.com 1.10,2013-11-13 03:13:00,
2013-11-12 22:28:00,62.4,55.0,30.12,WNW,285,0.0,3.0,78,0.00,,,0.00,0,weatherlink.com 1.10,2013-11-13 03:28:00,
2013-11-12 22:43:00,62.1,55.0,30.12,WNW,289,0.0,2.0,78,0.00,,,0.00,0,weatherlink.com 1.10,2013-11-13 03:43:00,
2013-11-12 22:58:00,61.8,55.0,30.12,NNW,342,3.0,5.0,79,0.00,,,0.00,0,weatherlink.com 1.10,2013-11-13 03:58:00,
2013-11-12 23:13:00,63.0,54.0,30.13,NW,321,5.0,10.0,72,0.00,,,0.00,0,weatherlink.com 1.10,2013-11-13 04:13:00,
2013-11-12 23:28:00,63.2,53.0,30.13,NNW,348,7.0,9.0,69,0.00,,,0.00,0,weatherlink.com 1.10,2013-11-13 04:28:00,
2013-11-12 23:43:00,62.8,52.0,30.13,WNW,298,4.0,9.0,69,0.00,,,0.00,0,weatherlink.com 1.10,2013-11-13 04:43:00,
2013-11-12 23:58:00,62.6,51.0,30.14,North,5,5.0,13.0,66,0.00,,,0.00,0,weatherlink.com 1.10,2013-11-13 04:58:00,